Volver al catálogo

STARLINK-30224

ActivoComunicacionesVLEO
NORAD 57416·PAYLOAD·🇺🇸 United States

Lanzado Jul 20, 2023 desde Vandenberg Space Force Base

Loading…

Próximos Pases (próximas 24 horas)

TLE

ActualizadoSource: CelesTrak SupGP

Época: Sep 14, 2026, 21:36 UTC

1 57416C 23102N   26257.90048611  .00396720  00000+0  42092-2 0  2574
2 57416  42.9992 253.8663 0001710 271.3310 245.7769 15.62967697    18

Sigue STARLINK-30224 en tiempo real con AllMySat

Download on the App Store